Regional Weather Roundup
Issued by NWS

Home | Current Version | Previous Version | Graphics & Text | Print | Product List | Glossary On
Versions: 1 2 3 4 5 6 7 8 9 10 11 12 13 14 15 16 17 18 19 20 21 22 23 24 25 26 27 28 29 30 31 32 33 34 35 36 37 38 39 40 41 42 43 44 45 46 47 48 49 50
000
ASUS43 KFSD 281202
RWRSD

WEATHER ROUNDUP FOR SOUTH DAKOTA
NATIONAL WEATHER SERVICE SIOUX FALLS SD
700 AM CDT THU MAY 28 2015

NOTE: "FAIR" INDICATES FEW OR NO CLOUDS BELOW 12,000 FEET WITH NO
SIGNIFICANT WEATHER AND/OR OBSTRUCTIONS TO VISIBILITY.


SDZ001>005-009-010-012>017-281300-
NORTHWEST AND NORTH CENTRAL SOUTH DAKOTA

CITY           SKY/WX    TMP DP  RH WIND       PRES   REMARKS
BUFFALO          N/A     56  53  90 NW5       29.86S
FAITH            N/A     54  52  93 N8        29.88F
MOBRIDGE       MOCLDY    60  58  92 S5        29.86S
$$

SDZ012>016-024>037-041>051-057-063-072>074-281300-
SOUTHWEST AND SOUTH CENTRAL SOUTH DAKOTA

CITY           SKY/WX    TMP DP  RH WIND       PRES   REMARKS
RAPID CTY ARPT PTCLDY    53  51  93 CALM      29.92R
PIERRE         PTCLDY    59  55  87 S12       29.90R
CUSTER         FOG       48  46  93 W3        30.01R VSB<1/4
ELLSWORTH AFB  PTCLDY    53  53 100 SE3       29.91S
PHILIP         PTCLDY    53  52  96 S5        29.91R
PINE RIDGE     MOCLDY    53  49  86 CALM      29.95S
WINNER         PTSUNNY   64  56  75 S18       29.95S
$$

SDZ004>011-016>023-039-040-281300-
NORTHEAST SOUTH DAKOTA

CITY           SKY/WX    TMP DP  RH WIND       PRES   REMARKS
ABERDEEN       CLOUDY    61  56  83 S10       29.91F
WATERTOWN      MOSUNNY   61  52  72 SE6       29.99S
BROOKINGS      PTSUNNY   64  52  63 S9        30.03R
$$

SDZ017-020-022-023-036>040-048>070-281300-
SOUTHEAST SOUTH DAKOTA

CITY           SKY/WX    TMP DP  RH WIND       PRES   REMARKS
SIOUX FALLS    CLOUDY    65  52  62 S10       30.02S
HURON            N/A    N/A N/A N/A MISG      29.96R
CHAMBERLAIN    CLOUDY    62  57  86 S8        29.96R
MITCHELL       CLOUDY    66  54  65 S10       29.98S
YANKTON        CLOUDY    64  54  68 S7        30.01S
$$

ABBREVIATIONS USED IN REMARKS
   TC - TEMPERATURE IN CELSIUS
  WCI - WIND CHILL INDEX
   HX - HEAT INDEX
  VSB - VISIBILITY




USA.gov is the U.S. government's official web portal to all federal, state and local government web resources and services.